Year,Month,Day,Hour,Minute,Value (Times are PST for temperature in C)
2013,06,21,00,00,12.80
2013,06,21,00,01,12.80
2013,06,21,00,02,12.80
2013,06,21,00,03,12.80
2013,06,21,00,04,12.80
2013,06,21,00,05,12.80
2013,06,21,00,06,12.80
2013,06,21,00,07,12.80
2013,06,21,00,08,12.80
2013,06,21,00,09,12.80
2013,06,21,00,10,12.80
2013,06,21,00,11,12.80
2013,06,21,00,12,12.80
2013,06,21,00,13,12.80
2013,06,21,00,14,12.80
2013,06,21,00,15,12.80
2013,06,21,00,16,12.80
2013,06,21,00,17,12.80
2013,06,21,00,18,12.80
2013,06,21,00,19,12.80
2013,06,21,00,20,12.80
2013,06,21,00,21,12.80
2013,06,21,00,22,12.80
2013,06,21,00,23,12.80
2013,06,21,00,24,12.80
2013,06,21,00,25,12.80
2013,06,21,00,26,12.80
2013,06,21,00,27,12.80
2013,06,21,00,28,12.80
2013,06,21,00,29,12.80
2013,06,21,00,30,12.80
2013,06,21,00,31,12.80
2013,06,21,00,32,12.80
2013,06,21,00,33,12.80
2013,06,21,00,34,12.80
2013,06,21,00,35,12.80
2013,06,21,00,36,12.80
2013,06,21,00,37,12.80
2013,06,21,00,38,12.80
2013,06,21,00,39,12.80
2013,06,21,00,40,12.80
2013,06,21,00,41,12.80
2013,06,21,00,42,12.80
2013,06,21,00,43,12.80
2013,06,21,00,44,12.80
2013,06,21,00,45,12.80
2013,06,21,00,46,12.80
2013,06,21,00,47,12.80
2013,06,21,00,48,12.80
2013,06,21,00,49,12.80
2013,06,21,00,50,12.90
2013,06,21,00,51,12.90
2013,06,21,00,52,12.90
2013,06,21,00,53,12.90
2013,06,21,00,54,12.90
2013,06,21,00,55,12.90
2013,06,21,00,56,12.90
2013,06,21,00,57,12.90
2013,06,21,00,58,12.90
2013,06,21,00,59,12.90
2013,06,21,01,00,12.90
2013,06,21,01,01,12.90
2013,06,21,01,02,12.90
2013,06,21,01,03,12.90
2013,06,21,01,04,12.90
2013,06,21,01,05,12.90
2013,06,21,01,06,12.90
2013,06,21,01,07,12.90
2013,06,21,01,08,12.90
2013,06,21,01,09,12.90
2013,06,21,01,10,12.90
2013,06,21,01,11,12.90
2013,06,21,01,12,12.90
2013,06,21,01,13,12.90
2013,06,21,01,14,13.00
2013,06,21,01,15,13.00
2013,06,21,01,16,13.00
2013,06,21,01,17,13.00
2013,06,21,01,18,13.00
2013,06,21,01,19,13.00
2013,06,21,01,20,13.00
2013,06,21,01,21,13.00
2013,06,21,01,22,13.00
2013,06,21,01,23,13.00
2013,06,21,01,24,13.00
2013,06,21,01,25,13.00
2013,06,21,01,26,13.00
2013,06,21,01,27,13.00
2013,06,21,01,28,13.00
2013,06,21,01,29,13.00
2013,06,21,01,30,13.00
2013,06,21,01,31,13.00
2013,06,21,01,32,13.10
2013,06,21,01,33,13.00
2013,06,21,01,34,13.10
2013,06,21,01,35,13.00
2013,06,21,01,36,13.10
2013,06,21,01,37,13.10
2013,06,21,01,38,13.10
2013,06,21,01,39,13.10
2013,06,21,01,40,13.10
2013,06,21,01,41,13.10
2013,06,21,01,42,13.10
2013,06,21,01,43,13.10
2013,06,21,01,44,13.10
2013,06,21,01,45,13.10
2013,06,21,01,46,13.10
2013,06,21,01,47,13.10
2013,06,21,01,48,13.10
2013,06,21,01,49,13.10
2013,06,21,01,50,13.10
2013,06,21,01,51,13.10
2013,06,21,01,52,13.10
2013,06,21,01,53,13.10
2013,06,21,01,54,13.10
2013,06,21,01,55,13.10
2013,06,21,01,56,13.10
2013,06,21,01,57,13.10
2013,06,21,01,58,13.10
2013,06,21,01,59,13.10
2013,06,21,02,00,13.10
2013,06,21,02,01,13.10
2013,06,21,02,02,13.10
2013,06,21,02,03,13.10
2013,06,21,02,04,13.10
2013,06,21,02,05,13.10
2013,06,21,02,06,13.10
2013,06,21,02,07,13.10
2013,06,21,02,08,13.10
2013,06,21,02,09,13.10
2013,06,21,02,10,13.10
2013,06,21,02,11,13.10
2013,06,21,02,12,13.10
2013,06,21,02,13,13.10
2013,06,21,02,14,13.10
2013,06,21,02,15,13.10
2013,06,21,02,16,13.10
2013,06,21,02,17,13.10
2013,06,21,02,18,13.10
2013,06,21,02,19,13.10
2013,06,21,02,20,13.10
2013,06,21,02,21,13.10
2013,06,21,02,22,13.10
2013,06,21,02,23,13.10
2013,06,21,02,24,13.10
2013,06,21,02,25,13.10
2013,06,21,02,26,13.10
2013,06,21,02,27,13.10
2013,06,21,02,28,13.10
2013,06,21,02,29,13.10
2013,06,21,02,30,13.10
2013,06,21,02,31,13.10
2013,06,21,02,32,13.10
2013,06,21,02,33,13.10
2013,06,21,02,34,13.10
2013,06,21,02,35,13.10
2013,06,21,02,36,13.10
2013,06,21,02,37,13.10
2013,06,21,02,38,13.10
2013,06,21,02,39,13.10
2013,06,21,02,40,13.10
2013,06,21,02,41,13.10
2013,06,21,02,42,13.10
2013,06,21,02,43,13.10
2013,06,21,02,44,13.10
2013,06,21,02,45,13.10
2013,06,21,02,46,13.10
2013,06,21,02,47,13.10
2013,06,21,02,48,13.10
2013,06,21,02,49,13.10
2013,06,21,02,50,13.10
2013,06,21,02,51,13.10
2013,06,21,02,52,13.10
2013,06,21,02,53,13.10
2013,06,21,02,54,13.10
2013,06,21,02,55,13.10
2013,06,21,02,56,13.10
2013,06,21,02,57,13.10
2013,06,21,02,58,13.10
2013,06,21,02,59,13.10
2013,06,21,03,00,13.10
2013,06,21,03,01,13.10
2013,06,21,03,02,13.10
2013,06,21,03,03,13.10
2013,06,21,03,04,13.10
2013,06,21,03,05,13.10
2013,06,21,03,06,13.00
2013,06,21,03,07,13.00
2013,06,21,03,08,13.00
2013,06,21,03,09,13.00
2013,06,21,03,10,13.00
2013,06,21,03,11,13.00
2013,06,21,03,12,13.00
2013,06,21,03,13,13.00
2013,06,21,03,14,13.00
2013,06,21,03,15,13.00
2013,06,21,03,16,13.00
2013,06,21,03,17,13.00
2013,06,21,03,18,13.00
2013,06,21,03,19,13.00
2013,06,21,03,20,13.00
2013,06,21,03,21,13.00
2013,06,21,03,22,13.00
2013,06,21,03,23,13.00
2013,06,21,03,24,12.90
2013,06,21,03,25,12.90
2013,06,21,03,26,12.90
2013,06,21,03,27,12.90
2013,06,21,03,28,12.90
2013,06,21,03,29,12.90
2013,06,21,03,30,12.90
2013,06,21,03,31,12.90
2013,06,21,03,32,12.90
2013,06,21,03,33,12.90
2013,06,21,03,34,12.90
2013,06,21,03,35,12.90
2013,06,21,03,36,12.90
2013,06,21,03,37,12.90
2013,06,21,03,38,12.90
2013,06,21,03,39,12.90
2013,06,21,03,40,12.90
2013,06,21,03,41,12.90
2013,06,21,03,42,12.90
2013,06,21,03,43,12.90
2013,06,21,03,44,12.90
2013,06,21,03,45,12.90
2013,06,21,03,46,12.90
2013,06,21,03,47,12.90
2013,06,21,03,48,12.90
2013,06,21,03,49,12.90
2013,06,21,03,50,12.90
2013,06,21,03,51,12.90
2013,06,21,03,52,12.90
2013,06,21,03,53,12.90
2013,06,21,03,54,12.90
2013,06,21,03,55,12.90
2013,06,21,03,56,12.90
2013,06,21,03,57,12.90
2013,06,21,03,58,12.90
2013,06,21,03,59,12.90
2013,06,21,04,00,12.90
2013,06,21,04,01,12.90
2013,06,21,04,02,12.90
2013,06,21,04,03,12.90
2013,06,21,04,04,12.90
2013,06,21,04,05,12.90
2013,06,21,04,06,12.90
2013,06,21,04,07,12.90
2013,06,21,04,08,12.90
2013,06,21,04,09,12.90
2013,06,21,04,10,12.90
2013,06,21,04,11,12.90
2013,06,21,04,12,12.90
2013,06,21,04,13,12.90
2013,06,21,04,14,12.90
2013,06,21,04,15,12.90
2013,06,21,04,16,12.90
2013,06,21,04,17,12.90
2013,06,21,04,18,12.90
2013,06,21,04,19,12.90
2013,06,21,04,20,12.90
2013,06,21,04,21,12.90
2013,06,21,04,22,12.90
2013,06,21,04,23,12.90
2013,06,21,04,24,12.90
2013,06,21,04,25,12.90
2013,06,21,04,26,12.90
2013,06,21,04,27,12.90
2013,06,21,04,28,12.90
2013,06,21,04,29,12.90
2013,06,21,04,30,12.90
2013,06,21,04,31,12.90
2013,06,21,04,32,12.90
2013,06,21,04,33,12.90
2013,06,21,04,34,12.90
2013,06,21,04,35,12.90
2013,06,21,04,36,12.90
2013,06,21,04,37,12.90
2013,06,21,04,38,12.90
2013,06,21,04,39,12.90
2013,06,21,04,40,12.90
2013,06,21,04,41,12.90
2013,06,21,04,42,12.90
2013,06,21,04,43,12.90
2013,06,21,04,44,12.90
2013,06,21,04,45,12.90
2013,06,21,04,46,12.90
2013,06,21,04,47,12.90
2013,06,21,04,48,12.90
2013,06,21,04,49,12.90
2013,06,21,04,50,12.90
2013,06,21,04,51,12.90
2013,06,21,04,52,12.90
2013,06,21,04,53,12.90
2013,06,21,04,54,12.90
2013,06,21,04,55,12.90
2013,06,21,04,56,12.90
2013,06,21,04,57,12.90
2013,06,21,04,58,12.90
2013,06,21,04,59,12.90
2013,06,21,05,00,12.90
2013,06,21,05,01,12.90
2013,06,21,05,02,12.90
2013,06,21,05,03,12.90
2013,06,21,05,04,12.90
2013,06,21,05,05,12.90
2013,06,21,05,06,12.90
2013,06,21,05,07,12.90
2013,06,21,05,08,12.90
2013,06,21,05,09,12.90
2013,06,21,05,10,12.90
2013,06,21,05,11,12.90
2013,06,21,05,12,12.90
2013,06,21,05,13,12.90
2013,06,21,05,14,12.90
2013,06,21,05,15,12.90
2013,06,21,05,16,12.90
2013,06,21,05,17,12.90
2013,06,21,05,18,12.90
2013,06,21,05,19,12.90
2013,06,21,05,20,12.90
2013,06,21,05,21,12.90
2013,06,21,05,22,12.90
2013,06,21,05,23,12.90
2013,06,21,05,24,12.90
2013,06,21,05,25,12.90
2013,06,21,05,26,12.90
2013,06,21,05,27,12.90
2013,06,21,05,28,12.90
2013,06,21,05,29,12.90
2013,06,21,05,30,12.90
2013,06,21,05,31,12.90
2013,06,21,05,32,12.90
2013,06,21,05,33,12.90
2013,06,21,05,34,12.90
2013,06,21,05,35,12.90
2013,06,21,05,36,12.90
2013,06,21,05,37,12.90
2013,06,21,05,38,12.90
2013,06,21,05,39,12.90
2013,06,21,05,40,12.90
2013,06,21,05,41,12.90
2013,06,21,05,42,12.90
2013,06,21,05,43,12.90
2013,06,21,05,44,12.90
2013,06,21,05,45,12.90
2013,06,21,05,46,12.90
2013,06,21,05,47,12.90
2013,06,21,05,48,12.90
2013,06,21,05,49,13.00
2013,06,21,05,50,13.00
2013,06,21,05,51,13.00
2013,06,21,05,52,13.00
2013,06,21,05,53,13.00
2013,06,21,05,54,13.00
2013,06,21,05,55,13.00
2013,06,21,05,56,13.00
2013,06,21,05,57,13.00
2013,06,21,05,58,13.00
2013,06,21,05,59,13.00
2013,06,21,06,00,13.00
2013,06,21,06,01,13.00
2013,06,21,06,02,13.00
2013,06,21,06,03,13.00
2013,06,21,06,04,13.00
2013,06,21,06,05,13.00
2013,06,21,06,06,13.10
2013,06,21,06,07,13.10
2013,06,21,06,08,13.10
2013,06,21,06,09,13.10
2013,06,21,06,10,13.10
2013,06,21,06,11,13.10
2013,06,21,06,12,13.10
2013,06,21,06,13,13.10
2013,06,21,06,14,13.10
2013,06,21,06,15,13.10
2013,06,21,06,16,13.10
2013,06,21,06,17,13.10
2013,06,21,06,18,13.10
2013,06,21,06,19,13.10
2013,06,21,06,20,13.10
2013,06,21,06,21,13.20
2013,06,21,06,22,13.20
2013,06,21,06,23,13.20
2013,06,21,06,24,13.20
2013,06,21,06,25,13.20
2013,06,21,06,26,13.20
2013,06,21,06,27,13.20
2013,06,21,06,28,13.20
2013,06,21,06,29,13.20
2013,06,21,06,30,13.20
2013,06,21,06,31,13.20
2013,06,21,06,32,13.20
2013,06,21,06,33,13.20
2013,06,21,06,34,13.20
2013,06,21,06,35,13.20
2013,06,21,06,36,13.20
2013,06,21,06,37,13.20
2013,06,21,06,38,13.20
2013,06,21,06,39,13.30
2013,06,21,06,40,13.30
2013,06,21,06,41,13.30
2013,06,21,06,42,13.30
2013,06,21,06,43,13.30
2013,06,21,06,44,13.30
2013,06,21,06,45,13.30
2013,06,21,06,46,13.30
2013,06,21,06,47,13.30
2013,06,21,06,48,13.30
2013,06,21,06,49,13.30
2013,06,21,06,50,13.30
2013,06,21,06,51,13.30
2013,06,21,06,52,13.30
2013,06,21,06,53,13.40
2013,06,21,06,54,13.40
2013,06,21,06,55,13.40
2013,06,21,06,56,13.40
2013,06,21,06,57,13.40
2013,06,21,06,58,13.40
2013,06,21,06,59,13.40
2013,06,21,07,00,13.40
2013,06,21,07,01,13.40
2013,06,21,07,02,13.40
2013,06,21,07,03,13.40
2013,06,21,07,04,13.50
2013,06,21,07,05,13.50
2013,06,21,07,06,13.50
2013,06,21,07,07,13.50
2013,06,21,07,08,13.50
2013,06,21,07,09,13.50
2013,06,21,07,10,13.60
2013,06,21,07,11,13.60
2013,06,21,07,12,13.60
2013,06,21,07,13,13.60
2013,06,21,07,14,13.60
2013,06,21,07,15,13.60
2013,06,21,07,16,13.60
2013,06,21,07,17,13.60
2013,06,21,07,18,13.60
2013,06,21,07,19,13.60
2013,06,21,07,20,13.60
2013,06,21,07,21,13.60
2013,06,21,07,22,13.60
2013,06,21,07,23,13.60
2013,06,21,07,24,13.60
2013,06,21,07,25,13.60
2013,06,21,07,26,13.70
2013,06,21,07,27,13.70
2013,06,21,07,28,13.70
2013,06,21,07,29,13.70
2013,06,21,07,30,13.70
2013,06,21,07,31,13.70
2013,06,21,07,32,13.70
2013,06,21,07,33,13.70
2013,06,21,07,34,13.70
2013,06,21,07,35,13.70
2013,06,21,07,36,13.70
2013,06,21,07,37,13.70
2013,06,21,07,38,13.70
2013,06,21,07,39,13.70
2013,06,21,07,40,13.70
2013,06,21,07,41,13.70
2013,06,21,07,42,13.70
2013,06,21,07,43,13.70
2013,06,21,07,44,13.80
2013,06,21,07,45,13.80
2013,06,21,07,46,13.80
2013,06,21,07,47,13.80
2013,06,21,07,48,13.80
2013,06,21,07,49,13.80
2013,06,21,07,50,13.80
2013,06,21,07,51,13.80
2013,06,21,07,52,13.90
2013,06,21,07,53,13.90
2013,06,21,07,54,13.90
2013,06,21,07,55,13.90
2013,06,21,07,56,13.90
2013,06,21,07,57,13.90
2013,06,21,07,58,13.90
2013,06,21,07,59,13.90
2013,06,21,08,00,13.90
2013,06,21,08,01,13.90
2013,06,21,08,02,13.90
2013,06,21,08,03,13.90
2013,06,21,08,04,14.00
2013,06,21,08,05,14.00
2013,06,21,08,06,14.00
2013,06,21,08,07,14.00
2013,06,21,08,08,14.10
2013,06,21,08,09,14.10
2013,06,21,08,10,14.10
2013,06,21,08,11,14.10
2013,06,21,08,12,14.10
2013,06,21,08,13,14.10
2013,06,21,08,14,14.10
2013,06,21,08,15,14.20
2013,06,21,08,16,14.20
2013,06,21,08,17,14.20
2013,06,21,08,18,14.20
2013,06,21,08,19,14.20
2013,06,21,08,20,14.20
2013,06,21,08,21,14.20
2013,06,21,08,22,14.20
2013,06,21,08,23,14.30
2013,06,21,08,24,14.30
2013,06,21,08,25,14.30
2013,06,21,08,26,14.30
2013,06,21,08,27,14.30
2013,06,21,08,28,14.30
2013,06,21,08,29,14.30
2013,06,21,08,30,14.30
2013,06,21,08,31,14.40
2013,06,21,08,32,14.40
2013,06,21,08,33,14.40
2013,06,21,08,34,14.40
2013,06,21,08,35,14.40
2013,06,21,08,36,14.40
2013,06,21,08,37,14.40
2013,06,21,08,38,14.40
2013,06,21,08,39,14.40
2013,06,21,08,40,14.50
2013,06,21,08,41,14.50
2013,06,21,08,42,14.50
2013,06,21,08,43,14.50
2013,06,21,08,44,14.50
2013,06,21,08,45,14.60
2013,06,21,08,46,14.60
2013,06,21,08,47,14.60
2013,06,21,08,48,14.60
2013,06,21,08,49,14.60
2013,06,21,08,50,14.60
2013,06,21,08,51,14.70
2013,06,21,08,52,14.70
2013,06,21,08,53,14.70
2013,06,21,08,54,14.70
2013,06,21,08,55,14.70
2013,06,21,08,56,14.70
2013,06,21,08,57,14.70
2013,06,21,08,58,14.70
2013,06,21,08,59,14.70
2013,06,21,09,00,14.80
2013,06,21,09,01,14.80
2013,06,21,09,02,14.80
2013,06,21,09,03,14.80
2013,06,21,09,04,14.80
2013,06,21,09,05,14.90
2013,06,21,09,06,14.90
2013,06,21,09,07,14.90
2013,06,21,09,08,15.00
2013,06,21,09,09,15.00
2013,06,21,09,10,15.00
2013,06,21,09,11,15.10
2013,06,21,09,12,15.10
2013,06,21,09,13,15.10
2013,06,21,09,14,15.20
2013,06,21,09,15,15.20
2013,06,21,09,16,15.30
2013,06,21,09,17,15.30
2013,06,21,09,18,15.30
2013,06,21,09,19,15.40
2013,06,21,09,20,15.40
2013,06,21,09,21,15.50
2013,06,21,09,22,15.50
2013,06,21,09,23,15.60
2013,06,21,09,24,15.60
2013,06,21,09,25,15.70
2013,06,21,09,26,15.70
2013,06,21,09,27,15.70
2013,06,21,09,28,15.80
2013,06,21,09,29,15.80
2013,06,21,09,30,15.90
2013,06,21,09,31,15.90
2013,06,21,09,32,15.90
2013,06,21,09,33,15.90
2013,06,21,09,34,15.90
2013,06,21,09,35,16.00
2013,06,21,09,36,16.00
2013,06,21,09,37,16.10
2013,06,21,09,38,16.10
2013,06,21,09,39,16.20
2013,06,21,09,40,16.30
2013,06,21,09,41,16.30
2013,06,21,09,42,16.40
2013,06,21,09,43,16.40
2013,06,21,09,44,16.50
2013,06,21,09,45,16.60
2013,06,21,09,46,16.60
2013,06,21,09,47,16.70
2013,06,21,09,48,16.70
2013,06,21,09,49,16.80
2013,06,21,09,50,16.80
2013,06,21,09,51,16.90
2013,06,21,09,52,16.90
2013,06,21,09,53,17.00
2013,06,21,09,54,17.00
2013,06,21,09,55,17.10
2013,06,21,09,56,17.10
2013,06,21,09,57,17.10
2013,06,21,09,58,17.10
2013,06,21,09,59,17.10
2013,06,21,10,00,17.20
2013,06,21,10,01,17.20
2013,06,21,10,02,17.30
2013,06,21,10,03,17.30
2013,06,21,10,04,17.30
2013,06,21,10,05,17.30
2013,06,21,10,06,17.40
2013,06,21,10,07,17.40
2013,06,21,10,08,17.40
2013,06,21,10,09,17.50
2013,06,21,10,10,17.60
2013,06,21,10,11,17.60
2013,06,21,10,12,17.70
2013,06,21,10,13,17.70
2013,06,21,10,14,17.80
2013,06,21,10,15,17.80
2013,06,21,10,16,17.80
2013,06,21,10,17,17.80
2013,06,21,10,18,17.90
2013,06,21,10,19,17.90
2013,06,21,10,20,17.90
2013,06,21,10,21,17.90
2013,06,21,10,22,18.00
2013,06,21,10,23,18.00
2013,06,21,10,24,18.00
2013,06,21,10,25,18.00
2013,06,21,10,26,18.10
2013,06,21,10,27,18.10
2013,06,21,10,28,18.20
2013,06,21,10,29,18.20
2013,06,21,10,30,18.20
2013,06,21,10,31,18.20
2013,06,21,10,32,18.20
2013,06,21,10,33,18.10
2013,06,21,10,34,18.10
2013,06,21,10,35,18.10
2013,06,21,10,36,18.10
2013,06,21,10,37,18.10
2013,06,21,10,38,18.10
2013,06,21,10,39,18.00
2013,06,21,10,40,18.00
2013,06,21,10,41,18.00
2013,06,21,10,42,18.00
2013,06,21,10,43,18.00
2013,06,21,10,44,18.00
2013,06,21,10,45,18.00
2013,06,21,10,46,18.00
2013,06,21,10,47,18.00
2013,06,21,10,48,18.00
2013,06,21,10,49,18.00
2013,06,21,10,50,18.00
2013,06,21,10,51,18.00
2013,06,21,10,52,18.10
2013,06,21,10,53,18.10
2013,06,21,10,54,18.00
2013,06,21,10,55,18.00
2013,06,21,10,56,18.00
2013,06,21,10,57,18.00
2013,06,21,10,58,17.90
2013,06,21,10,59,17.90
2013,06,21,11,00,17.90
2013,06,21,11,01,17.90
2013,06,21,11,02,17.90
2013,06,21,11,03,17.80
2013,06,21,11,04,17.80
2013,06,21,11,05,17.80
2013,06,21,11,06,17.80
2013,06,21,11,07,17.70
2013,06,21,11,08,17.70
2013,06,21,11,09,17.60
2013,06,21,11,10,17.60
2013,06,21,11,11,17.50
2013,06,21,11,12,17.50
2013,06,21,11,13,17.40
2013,06,21,11,14,17.30
2013,06,21,11,15,17.20
2013,06,21,11,16,17.10
2013,06,21,11,17,17.10
2013,06,21,11,18,17.00
2013,06,21,11,19,16.90
2013,06,21,11,20,16.80
2013,06,21,11,21,16.80
2013,06,21,11,22,16.70
2013,06,21,11,23,16.60
2013,06,21,11,24,16.50
2013,06,21,11,25,16.40
2013,06,21,11,26,16.40
2013,06,21,11,27,16.30
2013,06,21,11,28,16.30
2013,06,21,11,29,16.20
2013,06,21,11,30,16.20
2013,06,21,11,31,16.20
2013,06,21,11,32,16.10
2013,06,21,11,33,16.10
2013,06,21,11,34,16.00
2013,06,21,11,35,16.00
2013,06,21,11,36,15.90
2013,06,21,11,37,15.90
2013,06,21,11,38,15.80
2013,06,21,11,39,15.80
2013,06,21,11,40,15.80
2013,06,21,11,41,15.80
2013,06,21,11,42,15.80
2013,06,21,11,43,15.70
2013,06,21,11,44,15.70
2013,06,21,11,45,15.70
2013,06,21,11,46,15.70
2013,06,21,11,47,15.70
2013,06,21,11,48,15.70
2013,06,21,11,49,15.70
2013,06,21,11,50,15.70
2013,06,21,11,51,15.70
2013,06,21,11,52,15.60
2013,06,21,11,53,15.60
2013,06,21,11,54,15.60
2013,06,21,11,55,15.60
2013,06,21,11,56,15.60
2013,06,21,11,57,15.50
2013,06,21,11,58,15.50
2013,06,21,11,59,15.50
2013,06,21,12,00,15.40
2013,06,21,12,01,15.40
2013,06,21,12,02,15.40
2013,06,21,12,03,15.40
2013,06,21,12,04,15.40
2013,06,21,12,05,15.40
2013,06,21,12,06,15.40
2013,06,21,12,07,15.40
2013,06,21,12,08,15.40
2013,06,21,12,09,15.40
2013,06,21,12,10,15.30
2013,06,21,12,11,15.30
2013,06,21,12,12,15.30
2013,06,21,12,13,15.30
2013,06,21,12,14,15.30
2013,06,21,12,15,15.20
2013,06,21,12,16,15.10
2013,06,21,12,17,15.10
2013,06,21,12,18,15.10
2013,06,21,12,19,15.00
2013,06,21,12,20,15.00
2013,06,21,12,21,14.90
2013,06,21,12,22,14.90
2013,06,21,12,23,14.90
2013,06,21,12,24,14.90
2013,06,21,12,25,14.90
2013,06,21,12,26,14.90
2013,06,21,12,27,14.90
2013,06,21,12,28,14.90
2013,06,21,12,29,15.00
2013,06,21,12,30,15.00
2013,06,21,12,31,15.10
2013,06,21,12,32,15.10
2013,06,21,12,33,15.20
2013,06,21,12,34,15.20
2013,06,21,12,35,15.20
2013,06,21,12,36,15.20
2013,06,21,12,37,15.20
2013,06,21,12,38,15.30
2013,06,21,12,39,15.30
2013,06,21,12,40,15.40
2013,06,21,12,41,15.40
2013,06,21,12,42,15.50
2013,06,21,12,43,15.60
2013,06,21,12,44,15.60
2013,06,21,12,45,15.70
2013,06,21,12,46,15.80
2013,06,21,12,47,15.90
2013,06,21,12,48,15.90
2013,06,21,12,49,15.90
2013,06,21,12,50,16.00
2013,06,21,12,51,16.00
2013,06,21,12,52,16.10
2013,06,21,12,53,16.10
2013,06,21,12,54,16.10
2013,06,21,12,55,16.10
2013,06,21,12,56,16.20
2013,06,21,12,57,16.20
2013,06,21,12,58,16.20
2013,06,21,12,59,16.30
2013,06,21,13,00,16.30
2013,06,21,13,01,16.40
2013,06,21,13,02,16.50
2013,06,21,13,03,16.60
2013,06,21,13,04,16.70
2013,06,21,13,05,16.80
2013,06,21,13,06,16.80
2013,06,21,13,07,16.90
2013,06,21,13,08,16.90
2013,06,21,13,09,16.90
2013,06,21,13,10,17.00
2013,06,21,13,11,17.00
2013,06,21,13,12,17.00
2013,06,21,13,13,17.00
2013,06,21,13,14,16.90
2013,06,21,13,15,16.90
2013,06,21,13,16,16.90
2013,06,21,13,17,17.00
2013,06,21,13,18,17.00
2013,06,21,13,19,17.10
2013,06,21,13,20,17.10
2013,06,21,13,21,17.20
2013,06,21,13,22,17.20
2013,06,21,13,23,17.30
2013,06,21,13,24,17.30
2013,06,21,13,25,17.40
2013,06,21,13,26,17.50
2013,06,21,13,27,17.50
2013,06,21,13,28,17.60
2013,06,21,13,29,17.60
2013,06,21,13,30,17.60
2013,06,21,13,31,17.60
2013,06,21,13,32,17.70
2013,06,21,13,33,17.80
2013,06,21,13,34,17.80
2013,06,21,13,35,17.80
2013,06,21,13,36,17.80
2013,06,21,13,37,17.80
2013,06,21,13,38,17.90
2013,06,21,13,39,17.90
2013,06,21,13,40,17.90
2013,06,21,13,41,17.90
2013,06,21,13,42,18.00
2013,06,21,13,43,18.00
2013,06,21,13,44,18.10
2013,06,21,13,45,18.10
2013,06,21,13,46,18.10
2013,06,21,13,47,18.20
2013,06,21,13,48,18.20
2013,06,21,13,49,18.30
2013,06,21,13,50,18.30
2013,06,21,13,51,18.30
2013,06,21,13,52,18.40
2013,06,21,13,53,18.40
2013,06,21,13,54,18.40
2013,06,21,13,55,18.40
2013,06,21,13,56,18.50
2013,06,21,13,57,18.50
2013,06,21,13,58,18.60
2013,06,21,13,59,18.60
2013,06,21,14,00,18.70
2013,06,21,14,01,18.70
2013,06,21,14,02,18.70
2013,06,21,14,03,18.70
2013,06,21,14,04,18.70
2013,06,21,14,05,18.70
2013,06,21,14,06,18.70
2013,06,21,14,07,18.70
2013,06,21,14,08,18.70
2013,06,21,14,09,18.80
2013,06,21,14,10,18.90
2013,06,21,14,11,18.90
2013,06,21,14,12,19.00
2013,06,21,14,13,19.10
2013,06,21,14,14,19.20
2013,06,21,14,15,19.30
2013,06,21,14,16,19.40
2013,06,21,14,17,19.50
2013,06,21,14,18,19.60
2013,06,21,14,19,19.60
2013,06,21,14,20,19.70
2013,06,21,14,21,19.70
2013,06,21,14,22,19.70
2013,06,21,14,23,19.70
2013,06,21,14,24,19.80
2013,06,21,14,25,19.80
2013,06,21,14,26,19.80
2013,06,21,14,27,19.90
2013,06,21,14,28,19.90
2013,06,21,14,29,20.00
2013,06,21,14,30,20.10
2013,06,21,14,31,20.10
2013,06,21,14,32,20.20
2013,06,21,14,33,20.30
2013,06,21,14,34,20.30
2013,06,21,14,35,20.40
2013,06,21,14,36,20.50
2013,06,21,14,37,20.50
2013,06,21,14,38,20.40
2013,06,21,14,39,20.40
2013,06,21,14,40,20.40
2013,06,21,14,41,20.30
2013,06,21,14,42,20.40
2013,06,21,14,43,20.40
2013,06,21,14,44,20.40
2013,06,21,14,45,20.40
2013,06,21,14,46,20.50
2013,06,21,14,47,20.50
2013,06,21,14,48,20.50
2013,06,21,14,49,20.50
2013,06,21,14,50,20.50
2013,06,21,14,51,20.50
2013,06,21,14,52,20.40
2013,06,21,14,53,20.40
2013,06,21,14,54,20.30
2013,06,21,14,55,20.30
2013,06,21,14,56,20.30
2013,06,21,14,57,20.30
2013,06,21,14,58,20.20
2013,06,21,14,59,20.20
2013,06,21,15,00,20.20
2013,06,21,15,01,20.20
2013,06,21,15,02,20.20
2013,06,21,15,03,20.20
2013,06,21,15,04,20.30
2013,06,21,15,05,20.30
2013,06,21,15,06,20.40
2013,06,21,15,07,20.50
2013,06,21,15,08,20.60
2013,06,21,15,09,20.60
2013,06,21,15,10,20.60
2013,06,21,15,11,20.70
2013,06,21,15,12,20.80
2013,06,21,15,13,20.80
2013,06,21,15,14,20.80
2013,06,21,15,15,20.80
2013,06,21,15,16,20.80
2013,06,21,15,17,20.80
2013,06,21,15,18,20.80
2013,06,21,15,19,20.80
2013,06,21,15,20,20.80
2013,06,21,15,21,20.80
2013,06,21,15,22,20.80
2013,06,21,15,23,20.90
2013,06,21,15,24,20.90
2013,06,21,15,25,20.90
2013,06,21,15,26,21.00
2013,06,21,15,27,21.00
2013,06,21,15,28,21.10
2013,06,21,15,29,21.10
2013,06,21,15,30,21.20
2013,06,21,15,31,21.20
2013,06,21,15,32,21.20
2013,06,21,15,33,21.20
2013,06,21,15,34,21.20
2013,06,21,15,35,21.30
2013,06,21,15,36,21.30
2013,06,21,15,37,21.30
2013,06,21,15,38,21.40
2013,06,21,15,39,21.40
2013,06,21,15,40,21.50
2013,06,21,15,41,21.50
2013,06,21,15,42,21.60
2013,06,21,15,43,21.60
2013,06,21,15,44,21.60
2013,06,21,15,45,21.70
2013,06,21,15,46,21.70
2013,06,21,15,47,21.80
2013,06,21,15,48,21.90
2013,06,21,15,49,21.90
2013,06,21,15,50,22.00
2013,06,21,15,51,22.10
2013,06,21,15,52,22.10
2013,06,21,15,53,22.20
2013,06,21,15,54,22.20
2013,06,21,15,55,22.20
2013,06,21,15,56,22.30
2013,06,21,15,57,22.40
2013,06,21,15,58,22.50
2013,06,21,15,59,22.50
2013,06,21,16,00,22.60
2013,06,21,16,01,22.60
2013,06,21,16,02,22.60
2013,06,21,16,03,22.60
2013,06,21,16,04,22.60
2013,06,21,16,05,22.50
2013,06,21,16,06,22.40
2013,06,21,16,07,22.40
2013,06,21,16,08,22.30
2013,06,21,16,09,22.30
2013,06,21,16,10,22.30
2013,06,21,16,11,22.30
2013,06,21,16,12,22.30
2013,06,21,16,13,22.30
2013,06,21,16,14,22.30
2013,06,21,16,15,22.30
2013,06,21,16,16,22.30
2013,06,21,16,17,22.30
2013,06,21,16,18,22.30
2013,06,21,16,19,22.30
2013,06,21,16,20,22.20
2013,06,21,16,21,22.10
2013,06,21,16,22,22.10
2013,06,21,16,23,22.00
2013,06,21,16,24,21.90
2013,06,21,16,25,21.80
2013,06,21,16,26,21.70
2013,06,21,16,27,21.50
2013,06,21,16,28,21.40
2013,06,21,16,29,21.30
2013,06,21,16,30,21.20
2013,06,21,16,31,21.00
2013,06,21,16,32,20.90
2013,06,21,16,33,20.80
2013,06,21,16,34,20.80
2013,06,21,16,35,20.80
2013,06,21,16,36,20.80
2013,06,21,16,37,20.80
2013,06,21,16,38,20.80
2013,06,21,16,39,20.80
2013,06,21,16,40,20.90
2013,06,21,16,41,21.00
2013,06,21,16,42,21.10
2013,06,21,16,43,21.10
2013,06,21,16,44,21.10
2013,06,21,16,45,21.10
2013,06,21,16,46,21.10
2013,06,21,16,47,21.10
2013,06,21,16,48,21.10
2013,06,21,16,49,21.20
2013,06,21,16,50,21.20
2013,06,21,16,51,21.20
2013,06,21,16,52,21.30
2013,06,21,16,53,21.30
2013,06,21,16,54,21.30
2013,06,21,16,55,21.30
2013,06,21,16,56,21.30
2013,06,21,16,57,21.30
2013,06,21,16,58,21.40
2013,06,21,16,59,21.50
2013,06,21,17,00,21.60
2013,06,21,17,01,21.60
2013,06,21,17,02,21.50
2013,06,21,17,03,21.50
2013,06,21,17,04,21.50
2013,06,21,17,05,21.60
2013,06,21,17,06,21.60
2013,06,21,17,07,21.60
2013,06,21,17,08,21.70
2013,06,21,17,09,21.70
2013,06,21,17,10,21.70
2013,06,21,17,11,21.80
2013,06,21,17,12,21.80
2013,06,21,17,13,21.80
2013,06,21,17,14,21.80
2013,06,21,17,15,21.70
2013,06,21,17,16,21.70
2013,06,21,17,17,21.70
2013,06,21,17,18,21.80
2013,06,21,17,19,21.70